Tracking 30306 objects as of 23-Apr-2025
HD Live streaming from Space Station
objects crossing your sky now

METEOR 2-11 DEB

Track METEOR 2-11 DEB now!
10-day predictions


NORAD ID: 40317
Int'l Code: 1984-072C
Perigee: 901.7 km
Apogee: 917.4 km
Inclination: 82.5 °
Period: 103.0 minutes
Semi major axis: 7280 km
RCS: Unknown
Launch date: July 5, 1984
Source: Commonwealth of Independent States (former USSR) (CIS)
Launch site: PLESETSK MISSILE AND SPACE COMPLEX (PKMTR)

Note: This is SATELLITE DEBRIS
Your satellite tracking list
Your tracking list is empty




NASA's NSSDC Master Catalog

Two Line Element Set (TLE):
1 40317U 84072C   25112.38845654  .00003017  00000-0  21338-2 0  9990
2 40317  82.5226 349.5425 0010806 176.3057 183.8192 13.97511228527227
Source of the keplerian elements: AFSPC